Hourly Weather Barrancas

Today, 29 October, Thursday

Time Temperature Precipitation Wind Pressure Humidity
00:00 +21°C° 0.2 mm 1 mps 674 mmHg 90%
01:00 +21°C° 0.2 mm 1 mps 673 mmHg 90%
02:00 +21°C° 0.1 mm 1 mps 673 mmHg 90%
03:00 +21°C° 0.1 mm 1 mps 673 mmHg 90%
04:00 +21°C° 0.1 mm 1 mps 673 mmHg 91%
05:00 +21°C° 0 mm 1 mps 673 mmHg 88%
06:00 +22°C° 0 mm 1 mps 674 mmHg 86%
07:00 +23°C° 0 mm 1 mps 675 mmHg 84%
08:00 +25°C° 0.2 mm 1 mps 676 mmHg 77%
09:00 +27°C° 0.2 mm 1 mps 676 mmHg 70%
10:00 +28°C° 0.2 mm 1 mps 677 mmHg 64%
11:00 +28°C° 1.4 mm 1 mps 676 mmHg 68%
12:00 +28°C° 1.4 mm 1 mps 675 mmHg 72%
13:00 +27°C° 1.4 mm 1 mps 674 mmHg 77%
14:00 +27°C° 1.6 mm 1 mps 673 mmHg 80%
15:00 +26°C° 1.6 mm 1 mps 673 mmHg 84%
16:00 +23°C° 1.6 mm 0 mps 673 mmHg 88%
17:00 +24°C° 0.9 mm 1 mps 673 mmHg 90%
18:00 +23°C° 0.9 mm 1 mps 673 mmHg 92%
19:00 +22°C° 0.9 mm 1 mps 674 mmHg 94%
20:00 +21°C° 1 mm 1 mps 674 mmHg 94%
21:00 +21°C° 1 mm 1 mps 674 mmHg 93%
22:00 +21°C° 1 mm 1 mps 675 mmHg 93%
23:00 +21°C° 1 mm 1 mps 675 mmHg 93%

Tomorrow, 30 October, Friday

Time Temperature Precipitation Wind Pressure Humidity
00:00 +21°C° 1 mm 1 mps 674 mmHg 93%
01:00 +21°C° 1 mm 1 mps 674 mmHg 93%
02:00 +21°C° 0.2 mm 1 mps 674 mmHg 92%
03:00 +21°C° 0.2 mm 1 mps 674 mmHg 91%
04:00 +21°C° 0.2 mm 1 mps 674 mmHg 90%
05:00 +22°C° 0 mm 1 mps 674 mmHg 87%
06:00 +22°C° 0 mm 1 mps 675 mmHg 84%
07:00 +23°C° 0 mm 1 mps 675 mmHg 81%
08:00 +25°C° 0 mm 1 mps 676 mmHg 72%
09:00 +27°C° 0 mm 1 mps 677 mmHg 63%
10:00 +29°C° 0 mm 1 mps 677 mmHg 55%
11:00 +29°C° 0.5 mm 1 mps 676 mmHg 59%
12:00 +29°C° 0.5 mm 1 mps 675 mmHg 64%
13:00 +28°C° 0.5 mm 1 mps 674 mmHg 69%
14:00 +27°C° 1.2 mm 1 mps 674 mmHg 76%
15:00 +26°C° 1.2 mm 1 mps 673 mmHg 83%
16:00 +25°C° 1.2 mm 1 mps 673 mmHg 91%
17:00 +24°C° 0.8 mm 1 mps 673 mmHg 92%
18:00 +23°C° 0.8 mm 1 mps 674 mmHg 93%
19:00 +22°C° 0.8 mm 1 mps 674 mmHg 95%
20:00 +21°C° 0.5 mm 1 mps 675 mmHg 95%
21:00 +21°C° 0.5 mm 1 mps 675 mmHg 95%
22:00 +21°C° 0.5 mm 1 mps 675 mmHg 94%
23:00 +21°C° 0.9 mm 1 mps 675 mmHg 95%

Day after tomorrow, 31 October, Saturday

Time Temperature Precipitation Wind Pressure Humidity
00:00 +21°C° 0.9 mm 1 mps 675 mmHg 95%
01:00 +21°C° 0.9 mm 1 mps 674 mmHg 96%
02:00 +21°C° 0.7 mm 1 mps 674 mmHg 96%
03:00 +21°C° 0.7 mm 1 mps 674 mmHg 95%
04:00 +21°C° 0.7 mm 1 mps 674 mmHg 95%
05:00 +21°C° 0.2 mm 1 mps 675 mmHg 94%
06:00 +21°C° 0.2 mm 1 mps 675 mmHg 93%
07:00 +21°C° 0.2 mm 1 mps 676 mmHg 93%
08:00 +19°C° 0.7 mm 0 mps 676 mmHg 93%
09:00 +19°C° 0.7 mm 0 mps 676 mmHg 93%
10:00 +20°C° 0.7 mm 0 mps 676 mmHg 94%
11:00 +21°C° 0.1 mm 0 mps 675 mmHg 90%
12:00 +22°C° 0.1 mm 0 mps 675 mmHg 86%
13:00 +22°C° 0.1 mm 0 mps 674 mmHg 82%
14:00 +23°C° 0.1 mm 0 mps 674 mmHg 78%
15:00 +26°C° 0.1 mm 1 mps 674 mmHg 74%
16:00 +27°C° 0.1 mm 1 mps 674 mmHg 69%
17:00 +25°C° 0.5 mm 1 mps 674 mmHg 77%
18:00 +23°C° 0.5 mm 1 mps 674 mmHg 85%
19:00 +21°C° 0.5 mm 1 mps 674 mmHg 93%
20:00 +21°C° 0.2 mm 1 mps 674 mmHg 92%
21:00 +21°C° 0.2 mm 1 mps 674 mmHg 91%
22:00 +21°C° 0.2 mm 1 mps 675 mmHg 90%
23:00 +21°C° 0.2 mm 1 mps 674 mmHg 90%

1 November, Sunday

Time Temperature Precipitation Wind Pressure Humidity
00:00 +21°C° 0.2 mm 1 mps 674 mmHg 90%
01:00 +21°C° 0.2 mm 1 mps 674 mmHg 89%
02:00 +21°C° 0.1 mm 1 mps 674 mmHg 89%
03:00 +21°C° 0.1 mm 1 mps 674 mmHg 89%
04:00 +19°C° 0.1 mm 0 mps 674 mmHg 89%
05:00 +19°C° 0 mm 0 mps 674 mmHg 88%
06:00 +20°C° 0 mm 0 mps 675 mmHg 86%
07:00 +20°C° 0 mm 0 mps 676 mmHg 84%
08:00 +24°C° 0.2 mm 1 mps 676 mmHg 78%
09:00 +26°C° 0.2 mm 1 mps 676 mmHg 72%
10:00 +28°C° 0.2 mm 1 mps 677 mmHg 66%
11:00 +27°C° 0.7 mm 1 mps 676 mmHg 69%
12:00 +27°C° 0.7 mm 1 mps 675 mmHg 71%
13:00 +27°C° 0.7 mm 1 mps 675 mmHg 74%
14:00 +26°C° 1.1 mm 1 mps 674 mmHg 79%
15:00 +25°C° 1.1 mm 1 mps 674 mmHg 84%
16:00 +24°C° 1.1 mm 1 mps 673 mmHg 89%
17:00 +23°C° 1.3 mm 1 mps 674 mmHg 92%
18:00 +22°C° 1.3 mm 1 mps 674 mmHg 94%
19:00 +21°C° 1.3 mm 1 mps 674 mmHg 97%
20:00 +19°C° 1.5 mm 0 mps 674 mmHg 97%
21:00 +19°C° 1.5 mm 0 mps 675 mmHg 97%
22:00 +19°C° 1.5 mm 0 mps 675 mmHg 98%
23:00 +19°C° 2.7 mm 0 mps 675 mmHg 98%

2 November, Monday

Time Temperature Precipitation Wind Pressure Humidity
00:00 +19°C° 2.7 mm 0 mps 674 mmHg 97%
01:00 +19°C° 2.7 mm 0 mps 674 mmHg 97%
02:00 +19°C° 1.5 mm 0 mps 674 mmHg 97%
03:00 +19°C° 1.5 mm 0 mps 674 mmHg 97%
04:00 +21°C° 1.5 mm 1 mps 674 mmHg 96%
05:00 +21°C° 0.1 mm 1 mps 674 mmHg 95%
06:00 +19°C° 0.1 mm 0 mps 674 mmHg 93%
07:00 +19°C° 0.1 mm 0 mps 675 mmHg 92%
08:00 +21°C° 0.1 mm 0 mps 675 mmHg 86%
09:00 +22°C° 0.1 mm 0 mps 676 mmHg 80%
10:00 +24°C° 0.1 mm 0 mps 676 mmHg 75%
11:00 +25°C° 0.3 mm 0 mps 676 mmHg 71%
12:00 +28°C° 0.3 mm 1 mps 675 mmHg 67%
13:00 +29°C° 0.3 mm 1 mps 674 mmHg 63%
14:00 +27°C° 0.6 mm 1 mps 674 mmHg 71%
15:00 +26°C° 0.6 mm 1 mps 673 mmHg 78%
16:00 +25°C° 0.6 mm 1 mps 672 mmHg 85%
17:00 +22°C° 1 mm 0 mps 673 mmHg 89%
18:00 +21°C° 1 mm 0 mps 673 mmHg 92%
19:00 +20°C° 1 mm 0 mps 673 mmHg 96%
20:00 +20°C° 1.7 mm 0 mps 674 mmHg 96%
21:00 +20°C° 1.7 mm 0 mps 674 mmHg 96%
22:00 +20°C° 1.7 mm 0 mps 674 mmHg 96%
23:00 +22°C° 1.3 mm 1 mps 674 mmHg 96%

3 November, Tuesday

Time Temperature Precipitation Wind Pressure Humidity
00:00 +21°C° 1.3 mm 1 mps 674 mmHg 96%
01:00 +21°C° 1.3 mm 1 mps 674 mmHg 96%
02:00 +21°C° 0.9 mm 1 mps 673 mmHg 96%
03:00 +21°C° 0.9 mm 1 mps 673 mmHg 96%
04:00 +21°C° 0.9 mm 1 mps 673 mmHg 96%
05:00 +21°C° 0.5 mm 1 mps 674 mmHg 96%
06:00 +21°C° 0.5 mm 1 mps 674 mmHg 95%
07:00 +19°C° 0.5 mm 0 mps 675 mmHg 95%
08:00 +22°C° 0.2 mm 1 mps 675 mmHg 91%
09:00 +23°C° 0.2 mm 1 mps 676 mmHg 87%
10:00 +25°C° 0.2 mm 1 mps 676 mmHg 84%
11:00 +25°C° 0.6 mm 1 mps 675 mmHg 82%
12:00 +26°C° 0.6 mm 1 mps 675 mmHg 81%
13:00 +26°C° 0.6 mm 1 mps 674 mmHg 80%
14:00 +25°C° 0.8 mm 1 mps 674 mmHg 84%
15:00 +25°C° 0.8 mm 1 mps 673 mmHg 87%
16:00 +24°C° 0.8 mm 1 mps 673 mmHg 91%
17:00 +23°C° 0.5 mm 1 mps 673 mmHg 93%
18:00 +22°C° 0.5 mm 1 mps 673 mmHg 95%
19:00 +22°C° 0.5 mm 1 mps 674 mmHg 97%
20:00 +19°C° 1.3 mm 0 mps 674 mmHg 97%
21:00 +19°C° 1.3 mm 0 mps 674 mmHg 96%
22:00 +19°C° 1.3 mm 0 mps 675 mmHg 96%
23:00 +19°C° 1.5 mm 0 mps 674 mmHg 96%
Show more